SBI225 UNBG-UNAA

Flight info

Callsign SBI225
Flight time 0h 47m
Altitude 31000
Route OBIDI1C OBIDI W915 NOSPI R241 KERAL KERAL1E
Aircraft A319/M-SDE3FGHIRWY/LB1

Departure

Time 2026-04-21 13:45
Airport Gorno-Altaysk Airport (UNBG)

Arrival

Time 2026-04-21 14:32
Airport Abakan International Airport (UNAA)
Time Latitude Longitude Altitude Speed Heading
2026-04-21 13:35 51.96856 85.83964 968 ft 0 kts 294°
2026-04-21 13:40 51.96859 85.83954 965 ft 2 kts 294°
2026-04-21 13:40 51.96865 85.83918 964 ft 4 kts 272°
2026-04-21 13:40 51.96834 85.83879 964 ft 1 kts 205°
2026-04-21 13:40 51.96826 85.83873 964 ft 3 kts 205°
2026-04-21 13:41 51.96804 85.83848 961 ft 5 kts 232°
2026-04-21 13:41 51.96796 85.83782 967 ft 7 kts 266°
2026-04-21 13:41 51.96792 85.83688 968 ft 10 kts 266°
2026-04-21 13:41 51.96782 85.83572 968 ft 12 kts 246°
2026-04-21 13:42 51.96702 85.83486 965 ft 16 kts 205°
2026-04-21 13:42 51.96595 85.83404 962 ft 19 kts 205°
2026-04-21 13:42 51.96465 85.83306 961 ft 21 kts 205°
2026-04-21 13:42 51.96334 85.83205 964 ft 21 kts 205°
2026-04-21 13:43 51.96206 85.83106 969 ft 20 kts 205°
2026-04-21 13:43 51.96094 85.83021 970 ft 12 kts 205°
2026-04-21 13:43 51.96033 85.82997 967 ft 9 kts 170°
2026-04-21 13:43 51.95986 85.82985 966 ft 6 kts 249°
2026-04-21 13:44 51.96013 85.82961 967 ft 5 kts 13°
2026-04-21 13:44 51.96045 85.82984 971 ft 7 kts 26°
2026-04-21 13:44 51.96256 85.83145 968 ft 75 kts 25°
2026-04-21 13:44 51.96967 85.83688 965 ft 146 kts 25°
2026-04-21 13:45 51.97928 85.84420 1544 ft 155 kts 25°
2026-04-21 13:45 51.98912 85.85171 2341 ft 159 kts 24°
2026-04-21 13:45 51.99996 85.85997 2827 ft 183 kts 24°
2026-04-21 13:45 52.01220 85.86926 3387 ft 205 kts 24°
2026-04-21 13:46 52.02571 85.87979 4037 ft 226 kts 25°
2026-04-21 13:46 52.04075 85.88974 4743 ft 246 kts 18°
2026-04-21 13:46 52.05761 85.89888 5477 ft 264 kts 16°
2026-04-21 13:46 52.07560 85.90804 6371 ft 276 kts 15°
2026-04-21 13:47 52.09419 85.91751 7335 ft 283 kts 15°
2026-04-21 13:47 52.11316 85.92730 8361 ft 288 kts 15°
2026-04-21 13:47 52.13237 85.93737 9419 ft 292 kts 14°
2026-04-21 13:47 52.15166 85.94761 10333 ft 301 kts 14°
2026-04-21 13:48 52.17236 85.95860 10776 ft 324 kts 14°
2026-04-21 13:48 52.19423 85.97030 11514 ft 334 kts 15°
2026-04-21 13:48 52.21647 85.98237 12427 ft 339 kts 15°
2026-04-21 13:48 52.23903 85.99474 13354 ft 344 kts 14°
2026-04-21 13:49 52.26185 86.00722 14213 ft 348 kts 14°
2026-04-21 13:49 52.28495 86.01983 15019 ft 351 kts 14°
2026-04-21 13:49 52.30822 86.03252 15839 ft 354 kts 14°
2026-04-21 13:49 52.33174 86.04530 16668 ft 357 kts 13°
2026-04-21 13:50 52.35509 86.05797 17476 ft 360 kts 13°
2026-04-21 13:50 52.37902 86.07098 18279 ft 363 kts 12°
2026-04-21 13:50 52.40312 86.08410 18960 ft 367 kts 12°
2026-04-21 13:50 52.42745 86.09739 19643 ft 370 kts 12°
2026-04-21 13:51 52.45185 86.11072 20334 ft 374 kts 12°
2026-04-21 13:51 52.47668 86.12428 21033 ft 377 kts 12°
2026-04-21 13:51 52.50179 86.13804 21717 ft 381 kts 12°
2026-04-21 13:51 52.52699 86.15189 22392 ft 384 kts 12°
2026-04-21 13:52 52.55222 86.16577 23038 ft 387 kts 12°
2026-04-21 13:52 52.57803 86.17991 23676 ft 391 kts 12°
2026-04-21 13:52 52.60397 86.19410 24212 ft 394 kts 11°
2026-04-21 13:52 52.63022 86.20850 24742 ft 397 kts 11°
2026-04-21 13:53 52.65658 86.22301 25286 ft 400 kts 11°
2026-04-21 13:53 52.68269 86.23741 25808 ft 402 kts 11°
2026-04-21 13:53 52.70944 86.25217 26356 ft 405 kts 11°
2026-04-21 13:53 52.73629 86.26701 26873 ft 407 kts 11°
2026-04-21 13:54 52.76330 86.28194 27374 ft 410 kts 11°
2026-04-21 13:54 52.79012 86.29678 27859 ft 412 kts 11°
2026-04-21 13:54 52.81741 86.31192 28350 ft 415 kts 10°
2026-04-21 13:54 52.84489 86.32720 28828 ft 418 kts 10°
2026-04-21 13:55 52.87254 86.34260 29295 ft 421 kts 10°
2026-04-21 13:55 52.90057 86.35821 29762 ft 423 kts 10°
2026-04-21 13:55 52.92822 86.37363 30185 ft 426 kts 10°
2026-04-21 13:55 52.95647 86.38944 30600 ft 429 kts 10°
2026-04-21 13:56 52.98481 86.40532 30909 ft 431 kts
2026-04-21 13:56 53.01312 86.42131 30970 ft 423 kts
2026-04-21 13:56 53.04041 86.43690 30985 ft 405 kts
2026-04-21 13:56 53.06672 86.45192 31000 ft 395 kts
2026-04-21 13:57 53.11800 86.48069 30986 ft 389 kts
2026-04-21 13:57 53.16935 86.50937 30986 ft 388 kts
2026-04-21 13:58 53.22031 86.53809 30998 ft 388 kts
2026-04-21 13:58 53.27153 86.56723 30987 ft 388 kts
2026-04-21 13:59 53.32233 86.59612 30987 ft 388 kts
2026-04-21 13:59 53.37351 86.62518 30983 ft 387 kts
2026-04-21 14:00 53.42429 86.65433 30983 ft 387 kts
2026-04-21 14:00 53.47537 86.68369 31008 ft 387 kts
2026-04-21 14:01 53.52636 86.71293 31008 ft 386 kts
2026-04-21 14:01 53.57729 86.74242 31000 ft 387 kts
2026-04-21 14:02 53.62793 86.77178 30995 ft 387 kts
2026-04-21 14:03 53.70412 86.81588 30991 ft 387 kts
2026-04-21 14:03 53.75476 86.84869 31007 ft 401 kts 19°
2026-04-21 14:03 53.77763 86.87760 31025 ft 421 kts 34°
2026-04-21 14:04 53.79582 86.91687 31014 ft 439 kts 52°
2026-04-21 14:04 53.80768 86.96540 31004 ft 456 kts 70°
2026-04-21 14:04 53.81132 87.01931 30995 ft 465 kts 85°
2026-04-21 14:05 53.81153 87.12906 30981 ft 466 kts 86°
2026-04-21 14:05 53.81148 87.23908 30991 ft 467 kts 86°
2026-04-21 14:06 53.81161 87.34851 30988 ft 468 kts 85°
2026-04-21 14:06 53.81171 87.45885 31013 ft 468 kts 86°
2026-04-21 14:07 53.81156 87.56912 30999 ft 468 kts 86°
2026-04-21 14:07 53.81140 87.67870 30996 ft 468 kts 86°
2026-04-21 14:08 53.81118 87.78880 30992 ft 468 kts 86°
2026-04-21 14:08 53.81088 87.89926 30989 ft 468 kts 86°
2026-04-21 14:09 53.81039 88.00870 30996 ft 468 kts 86°
2026-04-21 14:09 53.80990 88.11892 30990 ft 467 kts 86°
2026-04-21 14:10 53.80933 88.22846 30944 ft 468 kts 86°
2026-04-21 14:10 53.80901 88.28376 30679 ft 468 kts 86°
2026-04-21 14:10 53.80863 88.33880 30433 ft 467 kts 86°
2026-04-21 14:10 53.80818 88.39377 30185 ft 467 kts 86°
2026-04-21 14:11 53.80771 88.44911 29945 ft 467 kts 87°
2026-04-21 14:11 53.80721 88.50331 29662 ft 467 kts 87°
2026-04-21 14:11 53.80672 88.55812 29377 ft 465 kts 87°
2026-04-21 14:11 53.80622 88.61282 29091 ft 463 kts 87°
2026-04-21 14:12 53.80575 88.66731 28802 ft 461 kts 87°
2026-04-21 14:12 53.80521 88.72139 28534 ft 458 kts 87°
2026-04-21 14:12 53.80465 88.77467 28245 ft 454 kts 87°
2026-04-21 14:12 53.80409 88.82809 27734 ft 451 kts 87°
2026-04-21 14:13 53.80349 88.88096 27274 ft 447 kts 87°
2026-04-21 14:13 53.80277 88.93358 26837 ft 444 kts 87°
2026-04-21 14:13 53.80201 88.98560 26414 ft 441 kts 88°
2026-04-21 14:13 53.80130 89.03679 25975 ft 439 kts 88°
2026-04-21 14:14 53.80056 89.08826 25546 ft 436 kts 88°
2026-04-21 14:14 53.79973 89.13945 25082 ft 434 kts 88°
2026-04-21 14:14 53.79890 89.19039 24633 ft 432 kts 88°
2026-04-21 14:14 53.79806 89.24116 24163 ft 430 kts 88°
2026-04-21 14:15 53.79729 89.29167 23694 ft 428 kts 88°
2026-04-21 14:15 53.79652 89.34185 23155 ft 425 kts 88°
2026-04-21 14:15 53.79566 89.39171 22683 ft 421 kts 88°
2026-04-21 14:15 53.79483 89.44050 22215 ft 418 kts 88°
2026-04-21 14:16 53.79398 89.48946 21745 ft 415 kts 88°
2026-04-21 14:16 53.79311 89.53803 21279 ft 412 kts 88°
2026-04-21 14:16 53.79223 89.58626 20816 ft 409 kts 89°
2026-04-21 14:16 53.79129 89.63425 20362 ft 406 kts 89°
2026-04-21 14:17 53.79037 89.68191 19904 ft 403 kts 89°
2026-04-21 14:17 53.78938 89.72915 19458 ft 401 kts 89°
2026-04-21 14:17 53.78835 89.77557 19023 ft 399 kts 89°
2026-04-21 14:17 53.78728 89.82253 18565 ft 397 kts 89°
2026-04-21 14:18 53.78629 89.86914 18097 ft 395 kts 89°
2026-04-21 14:18 53.78534 89.91557 17641 ft 391 kts 89°
2026-04-21 14:18 53.78442 89.96084 17219 ft 388 kts 89°
2026-04-21 14:18 53.78346 90.00637 16801 ft 384 kts 89°
2026-04-21 14:19 53.78252 90.05130 16372 ft 382 kts 89°
2026-04-21 14:19 53.78147 90.09612 15954 ft 379 kts 90°
2026-04-21 14:19 53.78039 90.13994 15544 ft 377 kts 90°
2026-04-21 14:19 53.77927 90.18413 15133 ft 374 kts 90°
2026-04-21 14:20 53.77806 90.22793 14737 ft 371 kts 90°
2026-04-21 14:20 53.77679 90.27144 14323 ft 369 kts 91°
2026-04-21 14:20 53.77545 90.31480 13914 ft 368 kts 91°
2026-04-21 14:20 53.77413 90.35734 13482 ft 365 kts 91°
2026-04-21 14:21 53.77281 90.39997 13069 ft 361 kts 91°
2026-04-21 14:21 53.77147 90.44218 12669 ft 357 kts 91°
2026-04-21 14:21 53.77012 90.48401 12257 ft 353 kts 92°
2026-04-21 14:21 53.76878 90.52526 11860 ft 350 kts 92°
2026-04-21 14:22 53.76747 90.56615 11450 ft 347 kts 92°
2026-04-21 14:22 53.76601 90.60581 11290 ft 336 kts 96°
2026-04-21 14:22 53.76128 90.64403 11008 ft 329 kts 109°
2026-04-21 14:22 53.75293 90.67991 10646 ft 326 kts 115°
2026-04-21 14:23 53.74429 90.71482 10273 ft 323 kts 115°
2026-04-21 14:23 53.73565 90.74959 9956 ft 317 kts 115°
2026-04-21 14:23 53.72715 90.78377 9470 ft 314 kts 115°
2026-04-21 14:23 53.71871 90.81764 8962 ft 310 kts 115°
2026-04-21 14:24 53.71039 90.85097 8335 ft 306 kts 115°
2026-04-21 14:24 53.70214 90.88397 7793 ft 300 kts 114°
2026-04-21 14:24 53.69425 90.91561 7364 ft 291 kts 114°
2026-04-21 14:24 53.68609 90.94680 6944 ft 289 kts 120°
2026-04-21 14:25 53.67500 90.97475 6538 ft 286 kts 130°
2026-04-21 14:25 53.66287 91.00131 6106 ft 285 kts 129°
2026-04-21 14:25 53.65094 91.02739 5675 ft 283 kts 129°
2026-04-21 14:25 53.63899 91.05352 5232 ft 279 kts 129°
2026-04-21 14:26 53.62721 91.07926 4788 ft 274 kts 129°
2026-04-21 14:26 53.61615 91.10524 4521 ft 267 kts 120°
2026-04-21 14:26 53.60837 91.13263 4452 ft 252 kts 115°
2026-04-21 14:26 53.60121 91.15880 4352 ft 240 kts 115°
2026-04-21 14:27 53.59435 91.18387 4246 ft 231 kts 115°
2026-04-21 14:27 53.58785 91.20771 4140 ft 222 kts 115°
2026-04-21 14:27 53.58200 91.23125 4037 ft 214 kts 103°
2026-04-21 14:27 53.58318 91.25503 3924 ft 201 kts 62°
2026-04-21 14:28 53.59247 91.27127 3625 ft 194 kts 25°
2026-04-21 14:28 53.60464 91.28060 3369 ft 190 kts 22°
2026-04-21 14:28 53.61650 91.28968 3141 ft 184 kts 23°
2026-04-21 14:28 53.62797 91.29850 2921 ft 178 kts 24°
2026-04-21 14:29 53.63908 91.30707 2704 ft 171 kts 24°
2026-04-21 14:29 53.64947 91.31508 2503 ft 157 kts 25°
2026-04-21 14:29 53.65897 91.32242 2323 ft 140 kts 25°
2026-04-21 14:29 53.66723 91.32880 2152 ft 126 kts 24°
2026-04-21 14:30 53.67504 91.33484 1993 ft 121 kts 24°
2026-04-21 14:30 53.68262 91.34070 1841 ft 119 kts 24°
2026-04-21 14:30 53.69009 91.34654 1711 ft 118 kts 24°
2026-04-21 14:30 53.69757 91.35228 1566 ft 118 kts 23°
2026-04-21 14:31 53.70505 91.35801 1418 ft 118 kts 24°
2026-04-21 14:31 53.71243 91.36383 1263 ft 119 kts 24°
2026-04-21 14:31 53.72006 91.36967 1062 ft 120 kts 24°
2026-04-21 14:31 53.72759 91.37553 910 ft 119 kts 22°
2026-04-21 14:32 53.73498 91.38125 815 ft 110 kts 24°
2026-04-21 14:32 53.74037 91.38543 808 ft 60 kts 25°
2026-04-21 14:32 53.74355 91.38789 805 ft 46 kts 24°
2026-04-21 14:32 53.74541 91.38932 804 ft 42 kts 24°
2026-04-21 14:33 53.74773 91.39112 801 ft 23 kts 25°
2026-04-21 14:33 53.74932 91.39237 802 ft 15 kts 24°
2026-04-21 14:33 53.75007 91.39300 801 ft 10 kts 41°
2026-04-21 14:33 53.75001 91.39362 800 ft 9 kts 113°
2026-04-21 14:34 53.74974 91.39467 801 ft 11 kts 115°
2026-04-21 14:34 53.74939 91.39594 801 ft 13 kts 115°
2026-04-21 14:34 53.74912 91.39705 801 ft 8 kts 98°
2026-04-21 14:34 53.74928 91.39808 801 ft 8 kts 72°
2026-04-21 14:35 53.74918 91.39855 801 ft 5 kts 143°
2026-04-21 14:35 53.74889 91.39873 801 ft 4 kts 163°
2026-04-21 14:35 53.74873 91.39881 801 ft 0 kts 163°